Wind_Speed
6 10 12 11 5 8 9 11 12 11 5 13 11 12 14 9 15 17 18 20 22 25 23 23 22 21 18 17 18 17 16 15 13 12 13 15 15 19 20 17 13 12 13 12
8 14 14 1 9 9 9 11 11 10 6 11 12 15 15 11 12 17 20 22 24 23 24 25 24 23 22 20 19 18 18 16 15 12 13 14 16 17 18 17 13 14 14 14
13 2 5 5 9 9 12 12 9 13 15 16 9 15 2 5 4 10 18 20 23 25 25 26 25 24 23 22 21 20 19 18 16 14 12 13 14 18 18 18 14 14 16 14
9 11 11 13 12 11 13 0 6 13 15 12 9 11 13 2 7 8 11 14 19 24 25 25 26 24 24 23 21 21 20 19 16 15 12 13 13 18 17 15 14 13 16 14
4 3 6 11 11 7 12 2 10 12 15 14 17 7 7 1 6 12 8 4 12 20 25 26 26 24 24 23 23 21 20 18 16 14 12 13 16 15 14 14 16 15 15 14
14 6 8 10 3 7 7 12 13 14 11 12 3 5 7 3 11 12 8 2 9 17 23 23 24 22 22 23 22 21 20 20 17 14 11 15 15 15 16 17 16 16 12 14
10 15 17 10 12 14 10 14 10 7 9 7 5 8 6 8 8 10 9 3 8 15 23 24 24 25 25 25 23 22 21 22 20 15 12 15 15 15 16 17 18 17 15 13
7 6 9 5 11 6 10 9 7 8 8 8 3 6 5 9 5 9 6 1 7 13 19 23 23 26 27 26 24 24 22 21 20 17 13 16 16 15 16 18 17 16 15 14
3 6 3 7 11 10 8 11 8 11 11 9 11 4 11 4 7 9 9 3 5 12 18 21 23 25 25 26 25 25 23 21 20 17 15 17 17 16 16 16 17 16 16 14
2 7 2 2 4 11 11 9 8 10 13 14 8 4 10 3 8 9 11 13 2 9 16 21 22 24 24 25 25 25 25 24 16 18 15 17 17 18 15 16 16 16 15 15
4 5 9 7 10 8 6 11 10 12 9 11 13 8 6 3 6 8 11 15 10 5 12 19 23 23 24 24 25 25 25 23 23 19 16 18 19 18 18 16 17 16 16 17
2 7 11 15 15 7 14 16 15 10 13 11 10 13 1 1 5 6 10 16 15 8 7 13 20 23 24 25 25 26 26 25 23 21 20 19 20 20 18 18 17 17 17 18
4 7 10 13 15 11 13 9 12 12 12 16 15 12 6 4 1 15 16 18 17 14 4 8 15 20 23 24 25 25 26 26 27 24 22 20 20 21 20 19 18 17 16 18
4 12 15 14 16 13 13 14 12 12 11 15 15 13 14 4 11 18 17 16 17 15 8 6 11 16 19 21 24 25 25 24 25 26 23 23 23 24 22 21 20 18 18 15
6 13 13 13 16 16 18 19 20 21 19 18 18 19 14 11 16 16 15 15 15 14 13 8 8 13 17 20 22 24 25 25 25 28 28 25 23 24 24 23 20 20 18 16
5 9 8 15 17 18 20 21 21 21 22 24 22 23 21 23 11 13 14 14 15 16 15 13 9 13 17 21 23 23 26 26 27 28 30 26 26 24 24 22 20 22 22 20
11 9 8 14 9 11 14 16 16 16 17 17 19 20 6 11 11 11 9 13 15 17 17 17 14 12 17 19 22 24 25 26 28 29 29 27 25 24 23 23 24 22 21 18
13 9 9 11 8 14 3 4 6 8 9 7 11 9 9 9 12 6 7 12 16 18 18 17 16 12 13 15 19 22 24 28 29 29 27 29 28 24 22 22 23 20 18 20
14 12 9 9 11 13 16 7 5 7 1 7 9 8 11 14 18 11 9 15 17 20 19 18 18 14 13 15 18 22 24 26 29 30 29 29 31 26 21 22 21 21 21 21
5 9 9 7 9 11 5 4 4 3 8 8 9 11 14 16 9 7 20 20 19 20 21 21 20 16 12 14 18 22 25 25 27 30 33 31 29 29 30 25 22 24 23 20
8 8 13 12 13 10 8 7 4 13 3 13 12 13 15 11 15 23 21 21 20 20 21 21 17 15 10 13 19 23 24 25 25 26 30 31 29 30 26 23 22 20 17 17
6 6 8 6 11 15 8 2 7 14 15 19 20 19 18 19 22 22 20 20 21 20 20 19 17 14 10 10 19 22 22 21 22 26 30 31 26 21 22 27 18 18 21 17
5 4 6 5 5 6 15 18 13 18 24 25 22 23 20 22 23 23 22 19 20 19 18 18 16 14 7 10 16 20 20 20 22 27 30 31 24 22 16 18 21 24 28 24
6 9 8 12 7 12 18 25 25 19 16 21 25 26 25 25 24 24 22 19 18 18 16 17 17 13 10 7 13 16 17 20 23 27 26 25 26 24 22 23 26 26 24 22
13 14 14 17 20 22 21 17 15 22 20 22 22 23 24 23 24 22 22 19 18 18 17 17 17 16 15 6 15 17 18 20 23 23 24 24 23 24 21 22 22 21 21 20
14 11 10 13 23 20 23 26 23 24 23 19 21 23 23 21 23 21 21 17 17 18 17 18 18 17 16 13 17 19 20 22 22 22 22 21 21 23 21 23 25 25 20 21
Wind_Direction
198 251 238 259 21 304 296 293 308 327 3 329 321 298 296 283 222 234 228 215 210 208 204 201 201 199 199 202 200 200 198 203 207 209 217 221 215 218 213 205 197 196 200 198
236 239 254 243 266 276 274 279 291 307 323 315 305 305 292 280 251 236 235 230 221 212 203 200 201 204 202 204 203 202 201 208 212 214 222 226 221 217 212 201 198 195 197 195
252 258 8 247 247 244 248 266 296 318 316 293 295 300 331 244 256 252 243 239 227 216 206 200 198 202 202 204 203 204 209 215 216 208 221 233 221 213 208 191 193 201 194 194
261 268 245 248 249 252 260 11 293 302 311 311 330 307 304 54 292 242 255 244 227 212 209 202 198 200 204 206 205 205 211 216 217 225 222 221 204 204 191 183 189 194 192 198
138 202 212 236 246 246 261 70 281 299 295 300 286 265 312 155 333 356 347 279 218 207 202 201 200 202 204 203 204 204 203 207 207 222 219 212 201 190 178 185 191 178 196 199
270 265 263 260 272 239 291 278 273 259 271 271 89 307 306 50 338 351 355 333 201 194 193 197 198 199 199 200 200 200 201 215 213 226 224 197 197 187 180 179 183 184 189 193
236 235 227 230 248 236 231 260 267 246 216 280 94 289 317 315 28 353 351 13 184 187 187 190 192 191 190 194 195 197 202 214 218 225 210 199 192 189 187 180 176 183 185 193
280 187 165 157 232 308 213 264 295 284 277 308 78 264 11 8 19 8 7 84 166 188 190 192 193 194 192 192 193 194 202 212 209 214 214 199 193 192 188 181 187 185 186 190
282 233 135 220 275 250 180 227 283 288 245 262 271 277 257 115 69 23 32 336 191 190 192 197 195 198 199 195 195 195 208 204 208 203 215 200 196 192 175 184 186 188 191 193
36 273 152 90 243 234 259 338 244 219 265 264 268 268 271 340 11 5 19 22 304 205 196 196 200 200 203 202 201 197 206 206 202 200 210 202 198 197 192 190 190 196 202 194
297 261 273 240 238 282 187 226 226 279 292 288 282 267 78 325 4 357 17 25 7 265 213 202 200 202 203 202 202 201 203 202 210 201 206 198 200 198 197 196 197 202 206 210
46 292 273 273 297 289 274 280 283 252 255 236 281 284 326 47 343 24 15 15 6 331 251 215 203 198 200 201 201 200 201 200 202 205 210 201 202 197 199 198 203 204 207 211
8 266 280 262 232 207 245 233 272 278 282 267 278 274 123 172 318 42 13 0 4 359 297 224 209 201 200 201 200 200 201 206 203 205 205 201 201 203 200 203 202 205 208 207
291 269 265 276 302 319 285 268 253 274 270 271 261 265 270 277 358 355 350 357 355 1 341 254 222 212 205 202 202 200 201 202 199 202 203 205 205 205 201 202 204 205 210 213
261 267 276 278 282 282 276 272 272 271 264 268 279 283 297 309 335 343 350 352 1 358 352 318 251 223 214 206 202 203 201 199 198 202 207 209 211 209 206 206 205 204 214 221
225 274 273 278 273 270 275 271 266 262 266 272 266 264 280 289 307 324 351 357 358 351 344 335 300 240 225 216 208 204 199 198 196 201 206 209 211 211 210 209 209 214 221 229
267 271 273 275 296 290 267 260 259 274 267 272 267 276 322 307 310 324 355 1 354 348 343 335 325 264 236 228 218 207 200 193 197 203 204 205 211 209 211 214 216 217 219 222
252 246 272 269 280 259 10 20 310 286 280 311 310 323 360 307 301 290 11 3 355 349 340 335 323 305 245 230 217 203 199 198 199 201 202 204 209 210 206 210 213 213 215 222
231 243 254 248 247 273 285 265 316 310 60 29 343 340 328 322 301 182 7 357 349 346 341 327 322 303 256 227 211 203 200 200 200 200 203 207 206 205 201 203 208 208 208 217
212 232 242 225 268 282 65 51 346 296 240 24 349 334 329 329 294 89 345 342 337 336 340 327 326 317 270 224 211 204 205 202 200 201 205 208 210 216 220 205 205 207 212 219
212 227 237 248 259 260 52 328 307 248 335 341 338 330 328 320 312 306 314 318 322 327 332 329 325 323 284 227 211 210 209 207 201 200 201 199 202 214 211 200 212 207 202 224
269 280 264 247 274 264 45 244 307 342 319 315 311 307 306 309 308 308 308 312 316 319 325 330 320 321 297 235 211 214 214 207 198 194 194 194 201 196 198 194 202 212 233 221
265 262 319 269 306 310 302 298 303 301 303 302 301 297 291 298 300 303 305 307 308 310 313 321 315 315 313 248 216 217 215 203 192 187 191 199 206 181 190 200 220 212 221 227
254 252 256 297 279 287 295 299 299 298 295 295 291 287 286 284 289 296 301 302 300 301 300 309 316 307 285 251 224 216 211 201 192 193 196 202 207 184 190 209 204 208 212 221
285 290 270 270 273 278 283 288 291 301 294 295 295 284 280 277 279 285 292 298 300 295 295 303 308 299 286 217 223 207 205 195 191 190 188 191 201 208 199 189 193 199 203 205
281 280 270 275 292 302 298 292 290 288 286 292 301 295 284 271 274 280 283 289 297 294 291 292 295 295 288 253 214 199 195 190 184 184 182 184 188 192 186 192 192 191 203 204
Height
1522 1522 1518 1510 1512 1519 1520 1517 1515 1506 1507 1507 1501 1497 1491 1489 1495 1498 1499 1501 1503 1506 1511 1516 1520 1524 1528 1531 1533 1535 1538 1540 1542 1545 1545 1546 1550 1551 1554 1557 1560 1562 1563 1566
1523 1519 1510 1514 1518 1519 1517 1517 1512 1506 1502 1503 1497 1494 1485 1484 1484 1490 1492 1493 1496 1501 1505 1510 1515 1520 1524 1528 1531 1532 1534 1537 1539 1543 1544 1543 1546 1549 1551 1555 1558 1561 1563 1565
1517 1509 1514 1515 1514 1518 1513 1512 1512 1513 1502 1492 1496 1488 1480 1476 1483 1484 1485 1486 1489 1494 1499 1505 1510 1515 1520 1524 1527 1529 1531 1533 1536 1539 1540 1540 1542 1545 1548 1552 1556 1560 1562 1564
1514 1509 1511 1515 1514 1512 1514 1502 1510 1509 1507 1510 1491 1508 1479 1478 1478 1476 1478 1478 1482 1488 1494 1500 1506 1511 1516 1520 1524 1526 1527 1530 1532 1534 1537 1538 1540 1542 1546 1551 1556 1560 1560 1563
1509 1511 1512 1512 1508 1505 1509 1506 1509 1507 1505 1498 1490 1500 1475 1472 1474 1471 1472 1473 1476 1482 1489 1495 1501 1506 1511 1517 1520 1524 1525 1527 1530 1531 1534 1536 1537 1540 1545 1550 1553 1558 1560 1562
1508 1508 1511 1505 1505 1507 1506 1507 1501 1496 1500 1509 1489 1497 1482 1474 1473 1470 1470 1472 1475 1479 1485 1492 1497 1502 1508 1513 1517 1521 1523 1525 1528 1530 1531 1534 1536 1539 1542 1547 1551 1556 1560 1562
1500 1499 1500 1504 1505 1500 1505 1503 1512 1512 1507 1503 1481 1495 1481 1470 1469 1471 1471 1471 1475 1478 1482 1488 1493 1497 1503 1508 1513 1517 1519 1522 1524 1527 1529 1532 1535 1538 1541 1545 1550 1554 1558 1561
1505 1505 1497 1499 1499 1495 1496 1494 1508 1527 1512 1498 1481 1496 1474 1466 1470 1471 1471 1473 1475 1479 1482 1486 1491 1495 1498 1503 1508 1512 1516 1519 1522 1525 1527 1531 1533 1537 1539 1543 1549 1552 1556 1559
1504 1503 1494 1496 1495 1495 1491 1503 1485 1498 1487 1504 1483 1474 1464 1464 1468 1470 1470 1471 1474 1476 1479 1484 1488 1492 1497 1500 1504 1507 1511 1515 1519 1522 1525 1528 1531 1535 1538 1543 1547 1551 1554 1556
1499 1510 1491 1493 1494 1492 1494 1487 1498 1491 1516 1516 1486 1486 1480 1469 1471 1471 1469 1471 1472 1474 1476 1480 1485 1489 1494 1498 1502 1506 1508 1512 1516 1520 1523 1526 1530 1534 1537 1541 1544 1549 1552 1554
1500 1503 1496 1490 1488 1486 1492 1494 1492 1485 1485 1501 1500 1482 1456 1467 1472 1472 1471 1475 1474 1473 1474 1476 1480 1485 1490 1495 1499 1503 1506 1510 1513 1517 1520 1524 1527 1532 1535 1539 1542 1545 1548 1551
1503 1499 1502 1494 1483 1488 1489 1486 1480 1490 1495 1484 1486 1485 1459 1467 1471 1473 1474 1476 1476 1475 1473 1474 1477 1480 1484 1490 1495 1499 1502 1505 1510 1514 1517 1521 1525 1529 1533 1536 1540 1542 1544 1548
1504 1499 1506 1494 1480 1484 1486 1479 1482 1478 1479 1490 1491 1480 1461 1466 1468 1474 1478 1478 1478 1475 1473 1474 1476 1478 1481 1485 1489 1495 1499 1501 1505 1510 1514 1518 1522 1525 1529 1533 1537 1540 1542 1544
1513 1502 1502 1504 1492 1487 1495 1487 1484 1483 1489 1478 1473 1468 1461 1461 1470 1480 1481 1480 1479 1477 1475 1474 1475 1477 1480 1482 1485 1489 1495 1498 1502 1506 1510 1513 1517 1520 1525 1529 1533 1537 1539 1542
1509 1506 1499 1495 1495 1494 1494 1493 1489 1486 1481 1489 1476 1473 1466 1469 1476 1482 1481 1481 1478 1478 1476 1473 1473 1475 1477 1479 1481 1485 1490 1493 1498 1501 1505 1509 1513 1517 1521 1525 1529 1533 1537 1540
1507 1508 1505 1505 1495 1492 1493 1486 1484 1482 1480 1478 1475 1475 1472 1472 1476 1481 1482 1479 1477 1477 1476 1473 1471 1471 1473 1475 1476 1479 1482 1487 1492 1496 1499 1504 1509 1513 1517 1522 1526 1529 1532 1536
1506 1505 1505 1504 1492 1496 1494 1476 1475 1474 1472 1474 1477 1468 1470 1477 1479 1483 1483 1481 1478 1476 1474 1470 1469 1468 1468 1470 1472 1475 1478 1481 1484 1489 1495 1500 1505 1509 1513 1518 1522 1525 1528 1532
1507 1509 1506 1504 1499 1508 1473 1477 1480 1480 1477 1474 1474 1471 1476 1483 1483 1481 1484 1482 1478 1474 1472 1470 1467 1464 1464 1465 1468 1471 1473 1475 1478 1484 1491 1495 1500 1505 1508 1512 1516 1521 1524 1526
1501 1504 1504 1504 1492 1480 1476 1474 1484 1484 1479 1487 1485 1483 1484 1484 1480 1479 1481 1480 1477 1474 1470 1468 1465 1462 1461 1462 1464 1466 1469 1470 1474 1479 1484 1490 1495 1499 1504 1506 1509 1513 1516 1519
1501 1502 1500 1489 1504 1499 1482 1486 1489 1488 1484 1490 1491 1489 1488 1485 1473 1469 1478 1477 1476 1473 1469 1466 1462 1458 1457 1458 1461 1461 1464 1466 1469 1473 1478 1484 1490 1494 1496 1501 1506 1506 1510 1514
1500 1501 1499 1491 1492 1485 1483 1489 1490 1494 1489 1492 1491 1490 1488 1485 1484 1480 1478 1477 1475 1471 1468 1463 1460 1456 1454 1455 1457 1458 1460 1462 1466 1470 1475 1480 1485 1490 1495 1502 1499 1512 1509 1513
1500 1497 1490 1492 1498 1494 1491 1489 1496 1492 1493 1492 1491 1489 1486 1484 1481 1478 1476 1474 1472 1469 1465 1461 1458 1454 1452 1452 1453 1454 1456 1460 1463 1466 1471 1475 1481 1487 1492 1497 1502 1503 1507 1509
1506 1501 1500 1498 1484 1487 1491 1493 1493 1494 1491 1489 1488 1486 1483 1481 1478 1475 1472 1470 1469 1466 1463 1459 1456 1450 1448 1449 1449 1450 1453 1458 1460 1464 1468 1472 1478 1485 1489 1497 1498 1498 1505 1507
1499 1506 1503 1501 1492 1490 1490 1490 1491 1490 1488 1487 1484 1481 1479 1476 1473 1470 1468 1466 1465 1462 1460 1456 1451 1446 1442 1445 1445 1446 1450 1454 1458 1460 1465 1470 1475 1481 1485 1490 1491 1494 1498 1501
1499 1501 1499 1494 1491 1489 1487 1486 1486 1485 1483 1481 1478 1475 1472 1470 1467 1466 1463 1462 1460 1457 1453 1451 1447 1442 1440 1438 1441 1442 1445 1449 1454 1458 1461 1467 1472 1475 1481 1487 1487 1491 1494 1498
1493 1492 1493 1489 1485 1485 1485 1483 1481 1479 1478 1475 1472 1469 1466 1464 1461 1460 1458 1457 1455 1452 1450 1447 1443 1439 1437 1433 1434 1435 1439 1443 1449 1454 1458 1463 1469 1471 1477 1480 1484 1486 1490 1494